DELTA 1 DEB, 5971

Orbit data source: Space-Track

DELTA 1 DEB, 5971 is space debris in SSO originally from a launch on Thu, 26 Jan 1967 UTC launched from the Air Force Western Test Range (AFWTR). Debris objects in space refer to the collection of defunct objects orbiting the Earth. Examples of debris include non-operational satellites, rocket bodies, and fragments generated from explosions, collisions, or faulty payload assembly.

Loading next visibility...
Identifier
5971, 1967-006E
Orbit
SSO
Country
Flag of USUS
Related business
Manufacturer
Unknown
Mission
Spacecraft
Bus & Motor
Unknown
Mass
Unknown
Launch date (UTC)
1967-01-26 (59 years ago)
Launch vehicle
Unknown
Launch site
Air Force Western Test Range (AFWTR)
Object type
Payload
Rocket body
Debris
Shape & HBR
Unknown shape, 0.1 m
Radar Cross Section
Small (<0.1 m²)

Expand to show TLE details & history
Last TLE update: 10 hours ago

TLE from 10 hours ago
0 DELTA 1 DEB
1 05971U 67006E   26136.07529321 -.00000040  00000-0  38295-4 0  9994
2 05971 101.9494  78.9045 0113310  34.3202  31.2633 12.73484789757008
Epoch: 2026-05-16T01:48Z
TLE epoch observation values (Epoch: 2026-05-16T01:48:25.333Z)
Latitude
63.67246°
Longitude
152.81621°
Altitude
1,303.791 km
Speed
7.245 km/s
True Right ascension
03h 34m 52s
True Declination
63° 32' 43"
Sunlit
Object was in daylight at epoch
Visualization orbit readout
Latitude
Unknown
Longitude
Unknown
Altitude
Unknown
Speed
Unknown
Apparent Right ascension
Unknown
Apparent Declination
Unknown
Sunlit
N/A
Visualization observer readout
Local Sidereal Time
20:28:43
Azimuth
Unknown
Elevation
Unknown
Doppler factor
Unknown
Orbital elements
Apogee altitude
1,453.045 km
Perigee altitude
1,277.564 km
Semi-major axis
7,743.442 km
Eccentricity
0.01133
Inclination
101.9494°
RAAN
78.9045°
Arg. of periapsis
34.3202°
True anomaly
31.94539°
Mean anomaly
31.2633°
Eccentric anomaly
31.60352°
Mean motion
3.18524 °/min
Orbital period
113.02 mins
BSTAR
0.000038295
Loading maneuver chart data...
Computing Atmospheric mass density...
Loading historical data...
Loading historical data...
Loading historical data...
Loading historical data...
Loading historical data...
Loading historical data...
Loading historical data...
Other satellites on launch #6 in the year 1967 (1967-01-26 UTC)

Documentation

Showing up to 5 results
|